Preview of NWS' New Version of Forecast
This preview is not operational and should not be used for support decisions.
Latest weather observations around

Baltimore / Martin (KMTN)

Using English Units (Switch to International System of Units)
Date/ Time (EDT) Wind (mph) Vis. (mi) Weather Sky Cond. Temp (°F) Rel. Humidity Wind Chill (°F) Heat Index (°F) Pressure Precip. (in)
Air Dwpt 6 hour Altimeter (inHg) Sea level (inHg) 1 hr 3 hr 6 hr
Max Min
Jun 19 06:50 SSE 5 10 Cloudy SCT008 OVC012 73 73     100%   75 29.85        
Jun 19 05:50 Calm 10 Cloudy BKN011 OVC120 72 72     100%   73 29.85        
Jun 19 05:30 Calm 10 Cloudy OVC011 72 72     100%   73 29.85        
Jun 19 05:21 Calm 10 Cloudy OVC011 72 72     100%   73 29.85        
Jun 19 05:03 Calm 10 Cloudy OVC011 72 72     100%   73 29.85        
Jun 19 04:42 Calm 10 Mostly Cloudy SCT011 BKN029 BKN036 72 72     100%   73 29.85        
Jun 19 04:21 Calm 10 Cloudy SCT011 OVC029 72 72     100%   73 29.85        
Jun 19 04:03 Calm 10 Cloudy BKN011 OVC023 72 72     100%   73 29.86        
Jun 19 03:42 Calm 10 Cloudy SCT013 OVC023 72 72     100%   73 29.87        
Jun 19 03:21 Calm 10 Cloudy OVC017 72 72     100%   73 29.87        
Jun 19 03:03 Calm 10 Cloudy OVC017 72 72     100%   73 29.88        
Jun 19 02:42 Calm 10 Cloudy BKN019 OVC028 72 72     100%   73 29.89        
Jun 19 02:21 Calm 10 Cloudy SCT006 OVC028 72 72     100%   73 29.89        
Jun 19 02:03 Calm 10 Cloudy SCT006 OVC028 72 72     100%   73 29.9        
Jun 19 01:42 Calm 10 Cloudy OVC030 72 72     100%   73 29.89        
Jun 19 01:21 Calm 10 Cloudy BKN034 OVC100 72 72     100%   73 29.9        
Jun 19 01:03 Calm 10 Light Rain BKN110 72 72     100%   73 29.9        
Jun 19 00:42 W 3 7 Heavy Rain SCT090 BKN120 72 72     100%   73 29.9   0    
Jun 19 00:21 SW 5 7 Rain BKN090 OVC110 72 72     100%   73 29.91   0    
Jun 19 00:03 SW 7 10 Mostly Cloudy SCT065 BKN110 73 72     94%   75 29.91        
Jun 18 23:42 SSW 5 10 Light Drizzle BKN110 73 72     94%   75 29.92        
Jun 18 23:21 S 7 10 Light Rain SCT040 SCT060 OVC100 73 72     94%   75 29.92        
Jun 18 23:03 S 7 10 Cloudy BKN038 BKN065 OVC100 75 72     89%   77 29.92        
Jun 18 22:42 S 10 10 Cloudy SCT038 SCT065 OVC085 75 72     89%   77 29.92        
Jun 18 22:21 S 3 10 Cloudy SCT039 SCT065 OVC085 77 72     83%   78 29.91        
Jun 18 22:03 Calm 10 Light Drizzle SCT037 BKN095 77 72     83%   78 29.91        
Jun 18 21:45 SW 7 10 Cloudy SCT095 BKN130 OVC180 79 73     84%   82 29.91        
Jun 18 20:45 SSW 5 10 Cloudy BKN047 BKN060 OVC120 81 72     74%   85 29.9        
Jun 18 19:45 W 10 10 Cloudy SCT120 BKN140 OVC250 82 70     66%   86 29.89        
Jun 18 18:45 W 8 10 Cloudy FEW050 BKN140 OVC250 82 70     66%   86 29.88        
Jun 18 17:54 W 10 10 Mostly Cloudy BKN044 BKN140 BKN250 84 70     62%   88 29.87        
Jun 18 16:54 WSW 10 10 Mostly Cloudy BKN046 BKN130 BKN250 84 70     62%   88 29.87        
Jun 18 16:17 W 14 10 Mostly Cloudy SCT046 BKN130 BKN250 84 70     62%   88 29.87        
Jun 18 15:57 WSW 15 10 Mostly Cloudy SCT046 BKN130 BKN250 84 72     66%   90 29.87        
Jun 18 15:45 SSW 10 10 Mostly Cloudy SCT045 BKN110 BKN160 84 72     66%   90 29.88        
Jun 18 14:45 SSW 11 10 Partly Cloudy SCT025 SCT040 SCT050 84 73     70%   91 29.89        
Jun 18 14:25 SSE 10 7 Light Rain SCT032 SCT055 BKN120 81 79     94%   88 29.89        
Jun 18 13:45 SE 9 10 Mostly Cloudy SCT050 BKN120 81 77     89%   87 29.91        
Jun 18 12:45 SSE 8 10 Mostly Cloudy FEW020 BKN110 81 75     84%   86 29.92        
Jun 18 11:45 SE 7 10 Mostly Cloudy SCT010 BKN110 79 75     89%   82 29.94        
Jun 18 10:45 SSE 5 10 Mostly Cloudy SCT007 BKN010 BKN110 79 75     89%   82 29.94        
Jun 18 10:03 SSE 5 10 Mostly Cloudy BKN010 75 75     100%   77 29.95        
Jun 18 09:45 Calm 10 Cloudy BKN007 OVC012 75 75     100%   77 29.94        
Jun 18 08:45 ESE 5 10 Cloudy OVC008 75 75     100%   77 29.95        
Jun 18 07:45 Calm 10 Mostly Cloudy BKN008 75 75     100%   77 29.95        
Jun 18 06:50 Calm 10 Mostly Cloudy BKN110 73 73     100%   75 29.94        
Jun 18 05:45 Calm 10 Mostly Cloudy FEW005 SCT075 BKN110 73 73     100%   75 29.94        
Jun 18 05:30 Calm 7 Partly Cloudy SCT070 SCT085 SCT120 72 72     100%   73 29.94        
Jun 18 05:21 Calm 7 Partly Cloudy SCT005 SCT070 SCT085 72 72     100%   73 29.94        
Jun 18 05:03 Calm 5 Fog/Mist SCT005 72 72     100%   73 29.94        
Jun 18 04:42 Calm 5 Fog/Mist CLR 72 72     100%   73 29.94        
Jun 18 04:21 Calm 5 Fog/Mist CLR 72 72     100%   73 29.94        
Jun 18 04:03 Calm 5 Fog/Mist SCT004 72 72     100%   73 29.94        
Jun 18 03:42 Calm 7 Partly Cloudy SCT006 72 72     100%   73 29.95        
Jun 18 03:21 Calm 10 Partly Cloudy SCT006 73 73     100%   75 29.95        
Jun 18 03:03 Calm 10 Partly Cloudy SCT008 73 73     100%   75 29.95        
Jun 18 02:42 SSE 3 10 Mostly Cloudy BKN008 BKN080 73 73     100%   75 29.96        
Jun 18 02:21 SSE 5 10 Mostly Cloudy SCT008 SCT012 BKN080 73 73     100%   75 29.97        
Jun 18 02:03 Calm 10 Mostly Cloudy SCT008 BKN012 BKN080 73 73     100%   75 29.97        
Jun 18 01:42 Calm 10 Mostly Cloudy SCT006 BKN012 BKN120 73 73     100%   75 29.98   0    
Jun 18 01:21 Calm 10 Cloudy OVC006 73 73     100%   75 29.98   0    
Jun 18 01:03 Calm 10 Mostly Cloudy BKN006 BKN080 BKN110 73 73     100%   75 29.98   0    
Jun 18 00:42 Calm 10 Mostly Cloudy SCT080 BKN110 73 73     100%   75 29.98        
Jun 18 00:21 Calm 10 Cloudy BKN080 OVC100 73 73     100%   75 29.98        
Jun 18 00:03 SE 6 10 Light Rain OVC070 73 73     100%   75 29.99        
Jun 17 23:42 SE 5 5 Rain SCT012 BKN046 OVC070 73 73     100%   75 30.01   0    
Jun 17 23:21 SSW 3 7 Thunderstorms and Heavy Rain SCT024 BKN032 OVC080 75 73     94%   77 30.02   0    
Jun 17 23:03 SSE 7 10 Mostly Cloudy SCT060 SCT075 BKN090 77 73     89%   79 30.01        
Jun 17 22:42 SSE 3 10 Partly Cloudy SCT120 77 72     83%   78 30        
Jun 17 22:21 SSE 6 10 Partly Cloudy SCT050 SCT120 77 73     89%   79 30        
Jun 17 22:03 SSE 7 10 Cloudy BKN050 OVC070 77 73     89%   79 29.99        
Jun 17 21:45 SE 8 10 Mostly Cloudy SCT070 BKN120 77 73     89%   79 29.99        
Jun 17 20:45 Calm 10 Partly Cloudy SCT120 SCT160 79 73     84%   82 29.97        
Jun 17 19:45 Calm 10 Mostly Cloudy SCT070 BKN085 82 72     70%   87 29.97        
Jun 17 18:54 W 5 10 Mostly Cloudy SCT090 BKN160 BKN250 82 72     70%   87 29.98        
Jun 17 17:45 SSE 9 10 Mostly Cloudy SCT060 BKN080 81 72     74%   85 29.96        
Jun 17 16:45 SSW 5 10 Mostly Cloudy BKN095 BKN120 82 72     70%   87 29.95        
Jun 17 15:54 SSE 8 10 Mostly Cloudy SCT065 BKN095 BKN120 84 72     66%   90 29.98        
Jun 17 14:45 SE 9 10 Mostly Cloudy SCT070 BKN080 84 72     66%   90 29.98        
Jun 17 13:45 ESE 9 10 Mostly Cloudy BKN050 BKN070 84 72     66%   90 29.99        
Jun 17 12:55 SE 7 10 Mostly Cloudy BKN050 BKN070 84 72     66%   90 30        
Jun 17 11:45 SE 6 10 Partly Cloudy SCT050 84 72     66%   90 29.99        
Jun 17 10:50 SE 8 10 Partly Cloudy SCT100 82 73     74%   88 29.99        
Jun 17 09:50 Calm 10 Partly Cloudy SCT100 82 70     66%   86 29.98        
Jun 17 08:45 Calm 10 Mostly Cloudy BKN080 79 72     79%   82 29.99        
Jun 17 07:50 Calm 10 Partly Cloudy SCT100 75 72     89%   77 29.98        
Jun 17 06:45 Calm 10 Partly Cloudy SCT070 SCT120 SCT200 73 70     89%   75 29.97        
Jun 17 05:45 Calm 10 Mostly Cloudy FEW070 SCT100 BKN200 73 70     89%   75 29.94        
Jun 17 05:30 Calm 10 Clear CLR 73 70     89%   75 29.93        
Jun 17 05:21 Calm 10 Clear CLR 73 70     89%   75 29.92        
Jun 17 05:03 W 3 10 Clear CLR 73 70     89%   75 29.91        
Jun 17 04:42 W 7 10 Partly Cloudy SCT075 SCT085 73 70     89%   75 29.91        
Jun 17 04:21 W 6 10 Mostly Cloudy SCT075 BKN085 75 70     83%   76 29.91        
Jun 17 04:03 W 10 10 Mostly Cloudy SCT075 BKN085 75 70     83%   76 29.92        
Jun 17 03:42 W 13 10 Partly Cloudy SCT120 77 70     78%   78 29.91        
Jun 17 03:21 W 16 10 Partly Cloudy SCT070 SCT090 77 72     83%   78 29.91        
Jun 17 03:03 WSW 3 10 Mostly Cloudy BKN070 77 73     89%   79 29.91        
Jun 17 02:42 Calm 10 Clear   77 72     83%   78 29.89        
Jun 17 02:21 WSW 3 10 Clear   77 73     89%   79 29.89        
Jun 17 02:03 WSW 5 10 Clear   77 73     89%   79 29.89        
Jun 17 01:42 Calm 10 Mostly Cloudy BKN080 BKN100 75 73     94%   77 29.89        
Jun 17 01:21 Calm 10 Mostly Cloudy BKN070 BKN090 77 73     89%   79 29.89        
Jun 17 01:03 SW 3 10 Partly Cloudy SCT070 SCT100 77 73     89%   79 29.89        
Jun 17 00:42 SSW 5 10 Clear CLR 75 73     94%   77 29.88        
Jun 17 00:21 S 3 10 Partly Cloudy SCT075 75 73     94%   77 29.88        
Jun 17 00:03 Calm 10 Partly Cloudy SCT075 SCT100 73 73     100%   75 29.88        
Jun 16 23:42 SSE 5 10 Partly Cloudy SCT100 73 73     100%   75 29.87        
Jun 16 23:21 Calm 10 Clear CLR 73 73     100%   75 29.87        
Jun 16 23:03 Calm 10 Partly Cloudy SCT100 73 73     100%   75 29.87        
Jun 16 22:42 ESE 5 10 Mostly Cloudy BKN095 73 73     100%   75 29.87        
Jun 16 22:21 SE 6 10 Cloudy OVC095 73 73     100%   75 29.87        
Jun 16 22:03 ESE 6 10 Mostly Cloudy SCT042 SCT065 BKN095 73 73     100%   75 29.86        
Jun 16 21:45 SE 3 7 Partly Cloudy SCT044 SCT065 75 75     100%   77 29.86        
Jun 16 20:50 SSE 5 7 Mostly Cloudy SCT013 SCT030 BKN055 75 73     94%   77 29.86        
Jun 16 20:23 SSW 10 7 Thunderstorms and Light Rain BKN043 BKN050 79 73     84%   82 29.86        
Jun 16 20:05 Calm 10 Mostly Cloudy BKN045 BKN050 BKN070 81 72     74%   85 29.85        
Jun 16 19:45 Calm 10 Mostly Cloudy SCT040 BKN065 BKN080 81 72     74%   85 29.85        
Jun 16 18:50 S 5 10 Mostly Cloudy BKN080 BKN200 84 72     66%   90 29.84        
Jun 16 17:50 SSE 7 10 Mostly Cloudy SCT050 BKN110 BKN200 84 72     66%   90 29.85        
Jun 16 16:45 SSE 7 10 Mostly Cloudy SCT050 SCT070 BKN120 82 72     70%   87 29.85        
Jun 16 15:45 SSE 7 10 Mostly Cloudy SCT050 SCT070 BKN090 81 72     74%   85 29.87        
Jun 16 14:45 SSW 9 10 Mostly Cloudy SCT150 BKN200 84 70     62%   88 29.88        
Jun 16 13:45 S 8 10 Mostly Cloudy BKN100 BKN120 84 68     58%   87 29.88        
Jun 16 12:50 SE 8 10 Cloudy SCT048 BKN100 OVC120 79 72     79%   82 29.9        
Jun 16 11:45 S 7 10 Mostly Cloudy SCT036 SCT048 BKN110 79 66     65%   79 29.91        
Jun 16 10:45 SE 9 10 Mostly Cloudy SCT080 SCT090 BKN120 79 68     70%   80 29.9        
Jun 16 09:55 SE 9 10 Mostly Cloudy SCT150 BKN250 75 64     69%   76 29.91        
Jun 16 08:55 SSE 8 10 Mostly Cloudy FEW160 BKN250 75 63     65%   75 29.92        
Jun 16 07:45 S 8 10 Mostly Cloudy FEW190 BKN250 73 61     65%   73 29.93        
Jun 16 06:45 S 6 10 Mostly Cloudy FEW110 FEW190 BKN250 72 61     69%   72 29.93        
May 14 16:45 SE 5 6 Partly Cloudy SCT110 72 66     83%   72 30        
Notice The following observation data may not be complete
May 14 07:45   4 Cloudy OVC004          %              
May 14 02:00 Calm 10 Cloudy OVC007 59 59     100%     30.03        
May 13 23:39 Calm 7 Thunderstorms OVC007 59 59     100%              
May 12 22:21 Calm 7 Clear CLR 64 64     100%     30   0    
May 12 01:00 E 5 10 Clear CLR 66 59     78%     30.07        
May 11 23:39 Calm 10 Partly Cloudy SCT120 70 57     64%     30.1        
May 11 22:39 Calm 10 Clear CLR 68 59     73%     30.09        
May 11 17:45 NW 6 10 Cloudy BKN080 OVC100 79 52     39%   78 30.03        
Jun 12 03:12 Calm 10 Clear CLR 70 70     100%     30.05        
Jun 12 01:54 Calm 10 Clear CLR 72 70     94%   73 30.06        
Jun 12 00:12 Calm 10 Clear CLR 73 68     83%   74 30.07        
Jun 11 08:50 Calm 10 Clear CLR 79 68     70%   80 30.15        
Notice The following observation data may not be complete
Jun 11 07:55   10 Clear CLR          %              
Jun 11 04:33 Calm 10 Clear CLR 68 68     100%     30.07        
Jun 10 16:45 SSE 15 10 Partly Cloudy SCT120 84 64     52%   86 30.01        
Jun 10 02:33 Calm 10 Clear CLR 64 55     73%     29.98        
Jun 09 22:33 Calm 10 Clear CLR 72 57     60%   71 29.94        
Notice The following observation data may not be complete
Jun 09 02:33   10 Clear CLR          %              
Jun 08 19:45 ENE 3 10 Mostly Clear FEW200 70 57     64%     29.85        
Notice The following observation data may not be complete
Jun 08 00:33   10 Clear CLR          %              
Jun 07 12:45 NNE 5 10 Cloudy OVC019 63 55     77%     30.03        
Jun 06 03:54 Calm 5 Fog/Mist BKN005 OVC010 66 66     100%     29.67        
Jun 05 23:12 Calm 3 Clear   68 68     100%     29.68